QLK474D YBTL-YBMA

Flight info

Callsign QLK474D
Flight time N/A
Altitude 24000
Route CATEY DCT WISKA J184 PENAR
Aircraft DH8D/M-SDE2E3FGRY/H

Departure

Time 2026-05-04 15:46
Airport Townsville Airport / RAAF Base Townsville (YBTL)

Arrival

Time N/A
Airport Mount Isa Airport (YBMA)
Time Latitude Longitude Altitude Speed Heading
2026-05-04 15:26 -19.25485 146.77046 24 ft 0 kts 158°
2026-05-04 15:41 -19.25488 146.77046 24 ft 0 kts 158°
2026-05-04 15:41 -19.25489 146.77048 25 ft 1 kts 142°
2026-05-04 15:42 -19.25469 146.77052 24 ft 13 kts 320°
2026-05-04 15:42 -19.25426 146.76947 15 ft 18 kts 283°
2026-05-04 15:42 -19.25432 146.76840 18 ft 15 kts 207°
2026-05-04 15:42 -19.25521 146.76790 23 ft 13 kts 208°
2026-05-04 15:43 -19.25593 146.76750 27 ft 9 kts 207°
2026-05-04 15:43 -19.25664 146.76712 30 ft 15 kts 207°
2026-05-04 15:43 -19.25751 146.76663 34 ft 12 kts 207°
2026-05-04 15:43 -19.25817 146.76627 36 ft 9 kts 208°
2026-05-04 15:44 -19.25858 146.76572 36 ft 11 kts 273°
2026-05-04 15:44 -19.25827 146.76497 35 ft 9 kts 296°
2026-05-04 15:44 -19.25796 146.76486 35 ft 0 kts 24°
2026-05-04 15:45 -19.25708 146.76532 35 ft 42 kts 23°
2026-05-04 15:45 -19.25190 146.76773 26 ft 118 kts 24°
2026-05-04 15:45 -19.24301 146.77199 154 ft 149 kts 29°
2026-05-04 15:45 -19.23346 146.77698 601 ft 160 kts 31°
2026-05-04 15:46 -19.22281 146.78177 1093 ft 172 kts 24°
2026-05-04 15:46 -19.21123 146.78584 1636 ft 176 kts 23°
2026-05-04 15:46 -19.19918 146.79004 1971 ft 191 kts 22°
2026-05-04 15:46 -19.18527 146.79135 2196 ft 214 kts 350°
2026-05-04 15:47 -19.17081 146.78554 2485 ft 230 kts 340°
2026-05-04 15:47 -19.15599 146.77861 2965 ft 232 kts 339°
2026-05-04 15:47 -19.14123 146.77162 3425 ft 236 kts 339°
2026-05-04 15:47 -19.12597 146.76440 3924 ft 238 kts 338°
2026-05-04 15:48 -19.11147 146.75589 4435 ft 241 kts 319°
2026-05-04 15:48 -19.10338 146.74083 4802 ft 244 kts 277°
2026-05-04 15:48 -19.11335 146.70795 5861 ft 235 kts 239°
2026-05-04 15:49 -19.12095 146.69273 6366 ft 236 kts 239°
2026-05-04 15:49 -19.12878 146.67734 6832 ft 239 kts 239°
2026-05-04 15:49 -19.13671 146.66185 7317 ft 240 kts 240°
2026-05-04 15:49 -19.14476 146.64622 7755 ft 243 kts 239°
2026-05-04 15:50 -19.15539 146.63272 8159 ft 242 kts 212°
2026-05-04 15:50 -19.17144 146.62793 8499 ft 242 kts 181°
2026-05-04 15:50 -19.18843 146.62796 8912 ft 245 kts 178°
2026-05-04 15:50 -19.20577 146.62833 9336 ft 248 kts 178°
2026-05-04 15:51 -19.22303 146.62878 9717 ft 252 kts 178°
2026-05-04 15:51 -19.24061 146.62932 10131 ft 253 kts 178°
2026-05-04 15:51 -19.25855 146.62988 10525 ft 256 kts 178°
2026-05-04 15:51 -19.27666 146.62929 10867 ft 260 kts 193°
2026-05-04 15:52 -19.29194 146.61975 11160 ft 257 kts 232°
2026-05-04 15:52 -19.30071 146.60358 11493 ft 255 kts 247°
2026-05-04 15:52 -19.30813 146.58649 11898 ft 255 kts 248°
2026-05-04 15:52 -19.31544 146.56947 12260 ft 257 kts 248°
2026-05-04 15:53 -19.32278 146.55228 12653 ft 257 kts 249°
2026-05-04 15:53 -19.33013 146.53502 12990 ft 259 kts 249°
2026-05-04 15:53 -19.33754 146.51761 13334 ft 260 kts 249°
2026-05-04 15:53 -19.34502 146.50001 13648 ft 262 kts 249°
2026-05-04 15:54 -19.35257 146.48222 13988 ft 262 kts 249°
2026-05-04 15:54 -19.36002 146.46468 14304 ft 263 kts 250°
2026-05-04 15:54 -19.36761 146.44678 14621 ft 264 kts 250°
2026-05-04 15:54 -19.37461 146.42894 14896 ft 264 kts 255°
2026-05-04 15:55 -19.37985 146.41032 15209 ft 263 kts 258°
2026-05-04 15:55 -19.38479 146.39162 15484 ft 264 kts 258°
2026-05-04 15:55 -19.38979 146.37268 15743 ft 266 kts 258°
2026-05-04 15:55 -19.39472 146.35406 16022 ft 266 kts 258°
2026-05-04 15:56 -19.39974 146.33513 16288 ft 266 kts 259°
2026-05-04 15:56 -19.40477 146.31625 16665 ft 262 kts 259°
2026-05-04 15:56 -19.40966 146.29793 17029 ft 257 kts 259°
2026-05-04 15:56 -19.41446 146.27986 17338 ft 254 kts 259°
2026-05-04 15:57 -19.41926 146.26195 17746 ft 247 kts 260°
2026-05-04 15:57 -19.42379 146.24497 18118 ft 240 kts 261°
2026-05-04 15:57 -19.42761 146.23055 18278 ft 241 kts 260°
2026-05-04 15:57 -19.43213 146.21350 18497 ft 241 kts 261°
2026-05-04 15:58 -19.43666 146.19638 18682 ft 241 kts 261°
2026-05-04 15:58 -19.44120 146.17929 18893 ft 241 kts 260°
2026-05-04 15:58 -19.44571 146.16225 19063 ft 242 kts 260°
2026-05-04 15:58 -19.45027 146.14508 19254 ft 242 kts 261°
2026-05-04 15:59 -19.45478 146.12816 19506 ft 238 kts 261°
2026-05-04 15:59 -19.45930 146.11113 19722 ft 237 kts 261°
2026-05-04 15:59 -19.46372 146.09441 19819 ft 240 kts 261°
2026-05-04 15:59 -19.46822 146.07745 20029 ft 238 kts 261°
2026-05-04 16:00 -19.47262 146.06059 20187 ft 237 kts 263°
2026-05-04 16:00 -19.47545 146.04347 20308 ft 235 kts 269°
2026-05-04 16:00 -19.47749 146.02631 20475 ft 234 kts 269°
2026-05-04 16:00 -19.47953 146.00903 20612 ft 235 kts 269°
2026-05-04 16:01 -19.48157 145.99184 20733 ft 236 kts 269°
2026-05-04 16:01 -19.48362 145.97470 20861 ft 237 kts 269°
2026-05-04 16:01 -19.48572 145.95720 20974 ft 238 kts 269°
2026-05-04 16:01 -19.48781 145.94002 21180 ft 234 kts 269°
2026-05-04 16:02 -19.48990 145.92262 21211 ft 239 kts 269°
2026-05-04 16:02 -19.49200 145.90515 21320 ft 240 kts 269°
2026-05-04 16:02 -19.49626 145.87001 21550 ft 240 kts 269°
2026-05-04 16:03 -19.49839 145.85249 21667 ft 240 kts 269°
2026-05-04 16:03 -19.50050 145.83505 21781 ft 239 kts 269°
2026-05-04 16:03 -19.50263 145.81741 21900 ft 239 kts 269°
2026-05-04 16:03 -19.50472 145.80017 22015 ft 238 kts 269°
2026-05-04 16:04 -19.50683 145.78273 22127 ft 238 kts 270°
2026-05-04 16:04 -19.51108 145.74715 22090 ft 250 kts 269°
2026-05-04 16:04 -19.51328 145.72873 22070 ft 256 kts 268°
2026-05-04 16:05 -19.51554 145.70989 22064 ft 261 kts 269°
2026-05-04 16:05 -19.51788 145.69045 22063 ft 266 kts 269°
2026-05-04 16:05 -19.52263 145.65096 22063 ft 275 kts 268°
2026-05-04 16:06 -19.52509 145.63046 22064 ft 280 kts 268°
2026-05-04 16:06 -19.53176 145.57487 22065 ft 291 kts 268°
2026-05-04 16:07 -19.53518 145.54629 22068 ft 296 kts 268°
2026-05-04 16:07 -19.54311 145.48003 22070 ft 305 kts 268°
2026-05-04 16:08 -19.54576 145.45781 22072 ft 307 kts 268°
2026-05-04 16:08 -19.55389 145.38950 22067 ft 313 kts 268°
2026-05-04 16:09 -19.55935 145.34354 22070 ft 315 kts 268°
2026-05-04 16:09 -19.56479 145.29748 22071 ft 317 kts 268°
2026-05-04 16:10 -19.57020 145.25171 22071 ft 318 kts 268°
2026-05-04 16:11 -19.58040 145.18248 22073 ft 323 kts 263°
2026-05-04 16:11 -19.58530 145.15918 22076 ft 323 kts 263°
2026-05-04 16:12 -19.59996 145.08923 22075 ft 324 kts 263°
2026-05-04 16:12 -19.61453 145.01915 22079 ft 325 kts 263°
2026-05-04 16:13 -19.62425 144.97224 22083 ft 325 kts 263°
2026-05-04 16:13 -19.63395 144.92532 22083 ft 326 kts 263°
2026-05-04 16:14 -19.64361 144.87852 22083 ft 326 kts 263°
2026-05-04 16:14 -19.65332 144.83139 22087 ft 326 kts 263°
2026-05-04 16:15 -19.66779 144.76103 22089 ft 326 kts 263°
2026-05-04 16:16 -19.67739 144.71423 22090 ft 326 kts 263°
2026-05-04 16:16 -19.69187 144.64355 22094 ft 325 kts 264°
2026-05-04 16:17 -19.70142 144.59689 22100 ft 325 kts 263°
2026-05-04 16:18 -19.71576 144.52661 22104 ft 325 kts 263°
2026-05-04 16:18 -19.72060 144.50285 22102 ft 325 kts 264°
2026-05-04 16:19 -19.73492 144.43256 22114 ft 325 kts 263°
2026-05-04 16:19 -19.74444 144.38565 22110 ft 324 kts 263°
2026-05-04 16:20 -19.75876 144.31512 22118 ft 324 kts 264°
2026-05-04 16:20 -19.76822 144.26837 22124 ft 325 kts 264°
2026-05-04 16:21 -19.78184 144.20099 22127 ft 325 kts 264°
2026-05-04 16:22 -19.79133 144.15395 22123 ft 325 kts 264°
2026-05-04 16:22 -19.80549 144.08366 22114 ft 326 kts 264°
2026-05-04 16:23 -19.81962 144.01337 22113 ft 325 kts 264°
2026-05-04 16:24 -19.83845 143.91948 22108 ft 325 kts 264°
2026-05-04 16:25 -19.84784 143.87257 22097 ft 325 kts 264°
2026-05-04 16:26 -19.86654 143.77893 22095 ft 324 kts 264°
2026-05-04 16:26 -19.88053 143.70866 22079 ft 325 kts 264°
2026-05-04 16:27 -19.88981 143.66202 22075 ft 324 kts 264°
2026-05-04 16:28 -19.90378 143.59160 22064 ft 324 kts 264°
2026-05-04 16:28 -19.91769 143.52138 22060 ft 324 kts 264°
2026-05-04 16:29 -19.93611 143.42815 22053 ft 322 kts 264°
2026-05-04 16:30 -19.94985 143.35843 22043 ft 322 kts 264°
2026-05-04 16:31 -19.95898 143.31201 22051 ft 321 kts 264°
2026-05-04 16:31 -19.97239 143.24371 22036 ft 321 kts 264°
2026-05-04 16:32 -19.98599 143.17429 22030 ft 322 kts 265°
2026-05-04 16:33 -19.99514 143.12747 22028 ft 322 kts 265°
2026-05-04 16:33 -20.00424 143.08081 22027 ft 323 kts 265°
2026-05-04 16:34 -20.01334 143.03410 22023 ft 323 kts 264°
2026-05-04 16:34 -20.01789 143.01077 22021 ft 323 kts 265°
2026-05-04 16:35 -20.03154 142.94058 22020 ft 322 kts 264°
2026-05-04 16:35 -20.04506 142.87094 22017 ft 321 kts 265°
2026-05-04 16:36 -20.04956 142.84772 22024 ft 319 kts 264°
2026-05-04 16:36 -20.05845 142.80179 22018 ft 318 kts 265°
2026-05-04 16:37 -20.06731 142.75598 22021 ft 317 kts 265°
2026-05-04 16:37 -20.07178 142.73282 22018 ft 316 kts 265°
2026-05-04 16:37 -20.08054 142.68736 22017 ft 315 kts 265°
2026-05-04 16:38 -20.08931 142.64180 22015 ft 315 kts 265°
2026-05-04 16:39 -20.10248 142.57324 22010 ft 315 kts 264°
2026-05-04 16:39 -20.11126 142.52748 22014 ft 313 kts 265°
2026-05-04 16:40 -20.11967 142.48358 22014 ft 312 kts 265°
2026-05-04 16:40 -20.12830 142.43846 22016 ft 310 kts 265°
2026-05-04 16:41 -20.13683 142.39381 22018 ft 309 kts 265°
2026-05-04 16:41 -20.14964 142.32658 22016 ft 308 kts 265°
2026-05-04 16:42 -20.16241 142.25948 22014 ft 308 kts 265°
2026-05-04 16:43 -20.17034 142.21773 22015 ft 307 kts 265°
2026-05-04 16:43 -20.17880 142.17316 22008 ft 307 kts 265°
2026-05-04 16:43 -20.18298 142.15106 22008 ft 307 kts 265°
2026-05-04 16:44 -20.19981 142.06206 22013 ft 306 kts 265°
2026-05-04 16:45 -20.20814 142.01793 22011 ft 305 kts 265°
2026-05-04 16:46 -20.22062 141.95165 22015 ft 304 kts 265°
2026-05-04 16:46 -20.22893 141.90745 22008 ft 304 kts 265°
2026-05-04 16:47 -20.23718 141.86353 22017 ft 304 kts 265°
2026-05-04 16:47 -20.24546 141.81934 22028 ft 303 kts 265°
2026-05-04 16:48 -20.25780 141.75343 22028 ft 304 kts 265°
2026-05-04 16:48 -20.26195 141.73123 22027 ft 304 kts 265°
2026-05-04 16:49 -20.27020 141.68701 22028 ft 304 kts 265°
2026-05-04 16:49 -20.27842 141.64290 22023 ft 304 kts 265°
2026-05-04 16:50 -20.28661 141.59889 22027 ft 305 kts 265°
2026-05-04 16:50 -20.29487 141.55447 22027 ft 305 kts 266°
2026-05-04 16:51 -20.30316 141.50980 22022 ft 304 kts 265°
2026-05-04 16:51 -20.30726 141.48772 22024 ft 305 kts 266°
2026-05-04 16:51 -20.31548 141.44334 22027 ft 305 kts 266°
2026-05-04 16:52 -20.32364 141.39918 22030 ft 305 kts 266°
2026-05-04 16:52 -20.32772 141.37707 22033 ft 305 kts 266°
2026-05-04 16:53 -20.33589 141.33283 22034 ft 305 kts 266°
2026-05-04 16:53 -20.34817 141.26611 22028 ft 307 kts 266°
2026-05-04 16:54 -20.35178 141.24648 22037 ft 307 kts 266°
2026-05-04 16:55 -20.35903 141.15720 22041 ft 302 kts 273°
2026-05-04 16:55 -20.36153 141.11267 22040 ft 302 kts 273°
2026-05-04 16:56 -20.36407 141.06808 22041 ft 303 kts 273°
2026-05-04 16:56 -20.36793 141.00079 22051 ft 303 kts 273°
2026-05-04 16:57 -20.36921 140.97839 22046 ft 303 kts 273°
2026-05-04 16:57 -20.37177 140.93359 22043 ft 303 kts 273°
2026-05-04 16:58 -20.37560 140.86644 22047 ft 303 kts 273°
2026-05-04 16:58 -20.37688 140.84375 22048 ft 304 kts 273°
2026-05-04 16:59 -20.37941 140.79900 22041 ft 304 kts 273°
2026-05-04 17:00 -20.38446 140.70926 22048 ft 303 kts 273°
2026-05-04 17:00 -20.38820 140.64214 22050 ft 303 kts 272°
2026-05-04 17:01 -20.39068 140.59746 22052 ft 302 kts 273°
2026-05-04 17:01 -20.39315 140.55255 21960 ft 305 kts 273°
2026-05-04 17:02 -20.39562 140.50725 21825 ft 308 kts 273°
2026-05-04 17:02 -20.39812 140.46166 21680 ft 308 kts 273°
2026-05-04 17:03 -20.39935 140.43918 21610 ft 307 kts 272°
2026-05-04 17:03 -20.40061 140.41635 21538 ft 305 kts 273°
2026-05-04 17:03 -20.40305 140.37157 21234 ft 305 kts 272°
2026-05-04 17:04 -20.40549 140.32610 20476 ft 310 kts 272°